• In Romania
  • List of Countries
  • For 7 days
  • Water Temperature
  • Satellite Maps
  • Weather Map
  • Weather Widgets
  • user-avatar
    Login

    Hourly Weather Benguela

    Today, 28 April, Friday

    Time Temperature Precipitation Wind Pressure Humidity
    00:00 +27°C° 0 mm 1 mps 759 mmHg 75%
    01:00 +27°C° 0 mm 1 mps 759 mmHg 76%
    02:00 +27°C° 0 mm 1 mps 759 mmHg 75%
    03:00 +27°C° 0 mm 1 mps 759 mmHg 74%
    04:00 +27°C° 0 mm 1 mps 758 mmHg 73%
    05:00 +27°C° 0 mm 1 mps 759 mmHg 70%
    06:00 +28°C° 0 mm 1 mps 759 mmHg 68%
    07:00 +29°C° 0 mm 1 mps 759 mmHg 65%
    08:00 +31°C° 0 mm 1 mps 759 mmHg 56%
    09:00 +35°C° 0 mm 2 mps 760 mmHg 47%
    10:00 +37°C° 0 mm 2 mps 760 mmHg 38%
    11:00 +38°C° 0 mm 3 mps 759 mmHg 38%
    12:00 +38°C° 0 mm 4 mps 759 mmHg 37%
    13:00 +40°C° 0 mm 4 mps 758 mmHg 36%
    14:00 +39°C° 0 mm 5 mps 758 mmHg 39%
    15:00 +39°C° 0 mm 5 mps 757 mmHg 41%
    16:00 +37°C° 0 mm 5 mps 757 mmHg 44%
    17:00 +35°C° 0.1 mm 4 mps 757 mmHg 52%
    18:00 +33°C° 0.1 mm 4 mps 758 mmHg 60%
    19:00 +29°C° 0.1 mm 3 mps 758 mmHg 68%
    20:00 +29°C° 0 mm 3 mps 758 mmHg 70%
    21:00 +28°C° 0 mm 2 mps 759 mmHg 72%
    22:00 +28°C° 0 mm 2 mps 759 mmHg 75%
    23:00 +28°C° 0 mm 2 mps 759 mmHg 74%

    Tomorrow, 29 April, Saturday

    Time Temperature Precipitation Wind Pressure Humidity
    00:00 +28°C° 0 mm 2 mps 759 mmHg 73%
    01:00 +27°C° 0 mm 2 mps 760 mmHg 73%
    02:00 +27°C° 0 mm 2 mps 759 mmHg 72%
    03:00 +27°C° 0 mm 2 mps 759 mmHg 72%
    04:00 +27°C° 0 mm 2 mps 759 mmHg 72%
    05:00 +28°C° 0 mm 2 mps 759 mmHg 70%
    06:00 +29°C° 0 mm 2 mps 760 mmHg 68%
    07:00 +30°C° 0 mm 1 mps 760 mmHg 66%
    08:00 +32°C° 0 mm 1 mps 760 mmHg 58%
    09:00 +34°C° 0 mm 1 mps 761 mmHg 50%
    10:00 +36°C° 0 mm 1 mps 761 mmHg 42%
    11:00 +38°C° 0 mm 2 mps 760 mmHg 40%
    12:00 +38°C° 0 mm 3 mps 759 mmHg 38%
    13:00 +40°C° 0 mm 4 mps 759 mmHg 36%
    14:00 +39°C° 0 mm 5 mps 758 mmHg 39%
    15:00 +39°C° 0 mm 6 mps 758 mmHg 42%
    16:00 +38°C° 0 mm 6 mps 757 mmHg 45%
    17:00 +35°C° 0 mm 6 mps 757 mmHg 52%
    18:00 +32°C° 0 mm 5 mps 758 mmHg 59%
    19:00 +29°C° 0 mm 5 mps 758 mmHg 66%
    20:00 +29°C° 0 mm 4 mps 759 mmHg 68%
    21:00 +28°C° 0 mm 4 mps 759 mmHg 69%
    22:00 +28°C° 0 mm 3 mps 760 mmHg 71%
    23:00 +28°C° 0 mm 3 mps 760 mmHg 70%

    Day after tomorrow, 30 April, Sunday

    Time Temperature Precipitation Wind Pressure Humidity
    00:00 +28°C° 0 mm 3 mps 759 mmHg 69%
    01:00 +28°C° 0 mm 3 mps 759 mmHg 68%
    02:00 +28°C° 0 mm 2 mps 759 mmHg 68%
    03:00 +28°C° 0 mm 2 mps 759 mmHg 67%
    04:00 +28°C° 0 mm 2 mps 758 mmHg 67%
    05:00 +28°C° 0 mm 2 mps 759 mmHg 66%
    06:00 +29°C° 0 mm 2 mps 759 mmHg 64%
    07:00 +29°C° 0 mm 2 mps 759 mmHg 63%
    08:00 +32°C° 0 mm 2 mps 760 mmHg 54%
    09:00 +35°C° 0 mm 2 mps 760 mmHg 46%
    10:00 +38°C° 0 mm 2 mps 760 mmHg 37%
    11:00 +39°C° 0 mm 3 mps 759 mmHg 35%
    12:00 +40°C° 0 mm 3 mps 758 mmHg 32%
    13:00 +42°C° 0 mm 4 mps 757 mmHg 30%
    14:00 +41°C° 0 mm 4 mps 757 mmHg 31%
    15:00 +40°C° 0 mm 5 mps 756 mmHg 32%
    16:00 +40°C° 0 mm 5 mps 756 mmHg 34%
    17:00 +36°C° 0 mm 4 mps 756 mmHg 43%
    18:00 +33°C° 0 mm 4 mps 757 mmHg 52%
    19:00 +30°C° 0 mm 3 mps 757 mmHg 62%
    20:00 +29°C° 0 mm 2 mps 757 mmHg 65%
    21:00 +29°C° 0 mm 2 mps 758 mmHg 67%
    22:00 +28°C° 0 mm 2 mps 758 mmHg 70%
    23:00 +28°C° 0 mm 2 mps 758 mmHg 69%

    1 May, Monday

    Time Temperature Precipitation Wind Pressure Humidity
    00:00 +28°C° 0 mm 2 mps 758 mmHg 67%
    01:00 +28°C° 0 mm 2 mps 758 mmHg 65%
    02:00 +27°C° 0 mm 2 mps 758 mmHg 62%
    03:00 +27°C° 0 mm 2 mps 758 mmHg 58%
    04:00 +27°C° 0 mm 2 mps 758 mmHg 55%
    05:00 +27°C° 0 mm 2 mps 758 mmHg 52%
    06:00 +27°C° 0 mm 2 mps 759 mmHg 49%
    07:00 +28°C° 0 mm 2 mps 759 mmHg 46%
    08:00 +31°C° 0 mm 2 mps 759 mmHg 40%
    09:00 +35°C° 0 mm 3 mps 759 mmHg 34%
    10:00 +38°C° 0 mm 3 mps 759 mmHg 28%
    11:00 +38°C° 0 mm 3 mps 758 mmHg 25%
    12:00 +40°C° 0 mm 4 mps 758 mmHg 23%
    13:00 +41°C° 0 mm 4 mps 757 mmHg 21%
    14:00 +41°C° 0 mm 4 mps 756 mmHg 24%
    15:00 +40°C° 0 mm 5 mps 756 mmHg 26%
    16:00 +40°C° 0 mm 5 mps 756 mmHg 28%
    17:00 +36°C° 0 mm 4 mps 756 mmHg 41%
    18:00 +33°C° 0 mm 3 mps 757 mmHg 54%
    19:00 +29°C° 0 mm 2 mps 757 mmHg 67%
    20:00 +28°C° 0 mm 2 mps 758 mmHg 70%
    21:00 +27°C° 0 mm 2 mps 758 mmHg 72%
    22:00 +27°C° 0 mm 2 mps 759 mmHg 75%
    23:00 +27°C° 0 mm 2 mps 759 mmHg 72%

    2 May, Tuesday

    Time Temperature Precipitation Wind Pressure Humidity
    00:00 +27°C° 0 mm 2 mps 758 mmHg 70%
    01:00 +27°C° 0 mm 1 mps 758 mmHg 67%
    02:00 +27°C° 0 mm 1 mps 758 mmHg 64%
    03:00 +27°C° 0 mm 1 mps 758 mmHg 60%
    04:00 +26°C° 0 mm 1 mps 758 mmHg 56%
    05:00 +27°C° 0 mm 1 mps 758 mmHg 54%
    06:00 +27°C° 0 mm 1 mps 759 mmHg 51%
    07:00 +27°C° 0 mm 1 mps 759 mmHg 48%
    08:00 +30°C° 0 mm 2 mps 759 mmHg 41%
    09:00 +34°C° 0 mm 2 mps 759 mmHg 34%
    10:00 +37°C° 0 mm 2 mps 759 mmHg 28%
    11:00 +38°C° 0 mm 2 mps 758 mmHg 26%
    12:00 +39°C° 0 mm 3 mps 757 mmHg 24%
    13:00 +39°C° 0 mm 3 mps 756 mmHg 23%
    14:00 +40°C° 0 mm 4 mps 756 mmHg 24%
    15:00 +40°C° 0 mm 4 mps 755 mmHg 25%
    16:00 +40°C° 0 mm 5 mps 755 mmHg 26%
    17:00 +36°C° 0 mm 4 mps 756 mmHg 36%
    18:00 +33°C° 0 mm 4 mps 756 mmHg 46%
    19:00 +29°C° 0 mm 3 mps 757 mmHg 55%
    20:00 +28°C° 0 mm 3 mps 757 mmHg 58%
    21:00 +28°C° 0 mm 2 mps 758 mmHg 60%
    22:00 +27°C° 0 mm 2 mps 758 mmHg 62%
    23:00 +27°C° 0 mm 1 mps 758 mmHg 60%

    3 May, Wednesday

    Time Temperature Precipitation Wind Pressure Humidity
    00:00 +27°C° 0 mm 1 mps 758 mmHg 58%
    01:00 +27°C° 0 mm 1 mps 758 mmHg 56%
    02:00 +27°C° 0 mm 1 mps 758 mmHg 54%
    03:00 +27°C° 0 mm 1 mps 758 mmHg 53%
    04:00 +26°C° 0 mm 2 mps 758 mmHg 52%
    05:00 +27°C° 0 mm 2 mps 758 mmHg 50%
    06:00 +27°C° 0 mm 1 mps 759 mmHg 48%
    07:00 +27°C° 0 mm 1 mps 759 mmHg 46%
    08:00 +30°C° 0 mm 1 mps 759 mmHg 41%
    09:00 +34°C° 0 mm 2 mps 759 mmHg 35%
    10:00 +37°C° 0 mm 2 mps 759 mmHg 29%
    11:00 +38°C° 0 mm 2 mps 758 mmHg 27%
    12:00 +39°C° 0 mm 3 mps 757 mmHg 25%
    13:00 +41°C° 0 mm 4 mps 756 mmHg 24%
    14:00 +40°C° 0 mm 4 mps 756 mmHg 26%
    15:00 +40°C° 0 mm 5 mps 756 mmHg 29%
    16:00 +39°C° 0 mm 5 mps 756 mmHg 32%
    17:00 +35°C° 0 mm 4 mps 756 mmHg 43%
    18:00 +31°C° 0 mm 3 mps 757 mmHg 54%
    19:00 +28°C° 0 mm 2 mps 757 mmHg 66%
    20:00 +27°C° 0 mm 2 mps 758 mmHg 68%
    21:00 +27°C° 0 mm 2 mps 758 mmHg 70%
    22:00 +26°C° 0 mm 1 mps 758 mmHg 72%
    23:00 +26°C° 0 mm 1 mps 758 mmHg 70%
    Show more